Flag Weather past 2 weeks in Mosjøen, Norway

Now
33 °F

Chilly.


Feels Like: 33 °F
Forecast: 30 / 34 °F
Wind: 2 mph from South

Location: Mosjoen Kjaerstad

Current Time: Nov 26, 2014 at 9:44:59 PM

Latest Report: Nov 26, 2014 at 9:00 PM


Visibility: N/A

Pressure: 30.17 "Hg

Humidity: 96%

Dew point: 32 °F

Location of MosjøenLocation

Historic Weather in Mosjøen — Graph

°F

Mosjøen temperature yesterday

Maximum temperature yesterday: 41 °F (at 9:00 PM)
Minimum temperature yesterday: 33 °F (at 12:00 AM)
Average temperature yesterday: 36 °F

Past Weeks' High & Low Weather Summary

 TemperatureHumidityPressure
High42 °F (Nov 26, 6:00 AM)98% (Nov 23, 1:00 AM)30.52 "Hg (Nov 23, 1:00 AM)
Low19 °F (Nov 18, 6:00 PM)60% (Nov 13, 11:00 AM)29.78 "Hg (Nov 24, 3:00 PM)
Average31 °F90%30.24 "Hg
* Reported Nov 11 8:00 PM — Nov 26 8:00 PM, Mosjøen, Weather by CustomWeather, © 2014

Note: Actual official high and low records may vary slightly from our data, if they occured in-between our weather recording intervals... More about our weather records

Advertising

Mosjøen weather history for previous 24 hours

 ConditionsComfort  
Time TempWeatherWind HumidityBarometerVisibility
8:00 PM
Nov 26
32 °FChilly.1 mph96%30.18 "HgN/A
7:00 PM34 °FChilly.2 mph97%30.19 "HgN/A
6:00 PM35 °FChilly.2 mph96%30.20 "HgN/A
5:00 PM36 °FChilly.1 mph96%30.20 "HgN/A
4:00 PM37 °FChilly.1 mph96%30.21 "HgN/A
3:00 PM36 °FChilly.2 mph95%30.22 "HgN/A
2:00 PM39 °FChilly.1 mph95%30.22 "HgN/A
1:00 PM38 °FChilly.1 mph94%30.22 "HgN/A
12:00 PM40 °FQuite cool.3 mph93%30.22 "HgN/A
11:00 AM41 °FQuite cool.2 mph94%30.21 "HgN/A
10:00 AM41 °FQuite cool.2 mph95%30.20 "HgN/A
9:00 AM40 °FQuite cool.1 mph94%30.19 "HgN/A
8:00 AM41 °FQuite cool.1 mph93%30.17 "HgN/A
7:00 AM42 °FQuite cool.2 mph92%30.15 "HgN/A
6:00 AM42 °FQuite cool.2 mph92%30.14 "HgN/A
5:00 AM41 °FQuite cool.2 mph92%30.13 "HgN/A
4:00 AM40 °FChilly.3 mph93%30.13 "HgN/A
3:00 AM39 °FChilly.5 mph91%30.13 "HgN/A
2:00 AM37 °FChilly.2 mph93%30.13 "HgN/A
1:00 AM37 °FChilly.2 mph92%30.13 "HgN/A
12:00 AM38 °FChilly.2 mph91%30.12 "HgN/A
11:00 PM
Nov 25
39 °FChilly.3 mph87%30.11 "HgN/A
10:00 PM38 °FChilly.2 mph89%30.09 "HgN/A
9:00 PM41 °FQuite cool.2 mph83%30.06 "HgN/A
Weather by CustomWeather, © 2014

See weather overviewHow to use our weather pages